Flag for Romania Weather past 2 weeks in Târgu Mureş, Romania

Now
28 °F

Sunny.


Feels Like: 28 °F
Forecast: 27 / 53 °F
Wind: 2 mph from Southeast

Location: Tirgu Mures Airport

Current Time: Oct 26, 2014 at 8:30:21 AM

Latest Report: Oct 26, 2014 at 7:30 AM


Visibility: 10 mi

Pressure: 30.42 "Hg

Humidity: 93%

Dew point: 27 °F

Location of Târgu MureşLocation

Historic Weather in Târgu Mureş — Graph

°F

Târgu Mureş temperature yesterday

Maximum temperature yesterday: 52 °F (at 2:30 PM)
Minimum temperature yesterday: 39 °F (at 12:00 AM)
Average temperature yesterday: 44 °F

Past Weeks' High & Low Weather Summary

 TemperatureHumidityPressure
High79 °F (Oct 11, 5:00 PM)100% (Oct 11, 8:00 AM)30.42 "Hg (Oct 11, 8:00 AM)
Low27 °F (Oct 26, 5:00 AM)37% (Oct 11, 5:30 PM)29.47 "Hg (Oct 22, 6:00 PM)
Average55 °F82%29.99 "Hg
* Reported Oct 11 8:00 AM — Oct 26 7:30 AM, Târgu Mureş, Weather by CustomWeather, © 2014

Note: Actual official high and low records may vary slightly from our data, if they occured in-between our weather recording intervals... More about our weather records

Advertising

Târgu Mureş weather history for previous 24 hours

 ConditionsComfort  
Time TempWeatherWind HumidityBarometerVisibility
7:30 AM
Oct 26
28 °FSunny.2 mph93%30.42 "Hg10 mi
7:00 AM27 °FSunny.5 mph100%30.39 "Hg10 mi
6:30 AM27 °FClear.5 mph93%30.39 "Hg10 mi
6:00 AM28 °FClear.5 mph93%30.39 "Hg10 mi
5:30 AM28 °FClear.5 mph93%30.39 "Hg10 mi
5:00 AM27 °FClear.5 mph93%30.39 "Hg10 mi
4:00 AM30 °FClear.No wind93%30.39 "Hg10 mi
3:00 AM34 °FChilly.No wind87%30.36 "HgN/A
3:00 AM36 °FClear.No wind87%30.36 "Hg10 mi
2:00 AM37 °FClear.No wind81%30.36 "Hg10 mi
1:00 AM37 °FClear.2 mph81%30.33 "Hg10 mi
12:00 AM39 °FClear.2 mph70%30.33 "Hg10 mi
11:00 PM
Oct 25
39 °FClear.2 mph75%30.33 "Hg10 mi
10:00 PM39 °FClear.2 mph65%30.33 "Hg10 mi
9:30 PM41 °FPassing clouds.2 mph61%30.33 "HgN/A
9:00 PM43 °FClear.2 mph53%30.30 "Hg10 mi
8:30 PM43 °FClear.2 mph57%30.30 "Hg10 mi
8:00 PM45 °FClear.2 mph49%30.30 "Hg10 mi
7:30 PM45 °FClear.2 mph46%30.30 "Hg10 mi
7:00 PM45 °FSunny.2 mph46%30.30 "Hg10 mi
6:30 PM46 °FSunny.5 mph37%30.30 "Hg10 mi
6:00 PM48 °FSunny.5 mph46%30.30 "Hg10 mi
5:30 PM50 °FPassing clouds.7 mph47%30.27 "HgN/A
5:00 PM50 °FPassing clouds.5 mph54%30.27 "HgN/A
4:30 PM50 °FPassing clouds.2 mph50%30.27 "HgN/A
4:00 PM50 °FPassing clouds.2 mph50%30.27 "HgN/A
3:30 PM52 °FPassing clouds.2 mph50%30.27 "HgN/A
3:00 PM50 °FPassing clouds.5 mph54%30.27 "HgN/A
2:30 PM52 °FPassing clouds.2 mph54%30.30 "HgN/A
2:00 PM50 °FScattered clouds.2 mph54%30.30 "HgN/A
1:30 PM48 °FScattered clouds.2 mph66%30.30 "HgN/A
1:00 PM48 °FPassing clouds.2 mph62%30.30 "HgN/A
12:30 PM46 °FPassing clouds.5 mph66%30.30 "HgN/A
12:00 PM45 °FPassing clouds.2 mph71%30.30 "HgN/A
11:30 AM45 °FPassing clouds.2 mph71%30.30 "HgN/A
11:00 AM45 °FScattered clouds.5 mph71%30.30 "HgN/A
10:30 AM43 °FScattered clouds.2 mph76%30.27 "HgN/A
10:00 AM43 °FMore clouds than sun.2 mph71%30.27 "HgN/A
9:30 AM43 °FPartly sunny.2 mph71%30.27 "HgN/A
9:00 AM43 °FScattered clouds.2 mph76%30.27 "HgN/A
8:30 AM43 °FPassing clouds.5 mph81%30.27 "HgN/A
8:00 AM41 °FPassing clouds.2 mph87%30.24 "HgN/A
Weather by CustomWeather, © 2014

See weather overviewHow to use our weather pages